Weather History for KBJC - November, 2013

Change the Weather History Date:

Sunday, November 3, 2013

  Actual Average Record
Temperature  
Mean Temperature 52 °F -  
Max Temperature 66 °F 52 °F 69 °F (2008)
Min Temperature 37 °F 33 °F 7 °F (1991)
Degree Days  
Heating Degree Days 12    
Growing Degree Days 2 (Base 50)    
Moisture  
Dew Point 17 °F    
Average Humidity 32    
Maximum Humidity 70    
Minimum Humidity 8    
Precipitation  
Precipitation 0.00 in - - ()
Sea Level Pressure  
Sea Level Pressure 29.70 in    
Wind  
Wind Speed 6 mph (North)    
Max Wind Speed 17 mph    
Max Gust Speed 25 mph    
Visibility 11 miles    
Events Rain    
Averages and records for this station are not official NWS values.
T = Trace of Precipitation, MM = Missing Value Source: NWS Daily Summary

Daily Weather History Graph

Daily Weather History Graph

Search for Another Location

Airport or City:

Trip Planner

Search our weather history database for the weather conditions in past years. The results will help you decide how hot, cold, wet, or windy it might be!

Date:

Astronomy

Nov. 03, 2013 Rise Set
Actual Time 6:31 AM MST 4:55 PM MST
Civil Twilight 6:03 AM MST 5:23 PM MST
Nautical Twilight 5:31 AM MST 5:55 PM MST
Astronomical Twilight 5:00 AM MST 6:27 PM MST
Moon 6:38 AM MST (11/3) 5:12 PM MST (11/3)
Length of Visible Light 11h 19m
Length of Day
10h 23m
New Moon, 0% of the Moon is Illuminated
Nov 3
New Moon
Nov 9
First Quarter
Nov 17
Full
Nov 25
Last Quarter
Dec 2
New

Hourly Weather History & Observations

Time (MST) Temp. Windchill Dew Point Humidity Pressure Visibility Wind Dir Wind Speed Gust Speed Precip Events Conditions
12:15 AM 46.4 °F 45.2 °F 19.4 °F 34% 29.77 in 10.0 mi ENE 3.5 mph - N/A   Clear
12:35 AM 46.4 °F - 17.6 °F 32% 29.76 in 10.0 mi Calm Calm - N/A   Clear
12:55 AM 46.4 °F - 17.6 °F 32% 29.75 in 10.0 mi Calm Calm - N/A   Clear
1:15 AM 44.6 °F 43.1 °F 17.6 °F 34% 29.75 in 10.0 mi NE 3.5 mph - N/A   Clear
1:35 AM 44.6 °F - 19.4 °F 37% 29.75 in 10.0 mi Calm Calm - N/A   Clear
1:55 AM 44.6 °F - 19.4 °F 37% 29.74 in 10.0 mi Calm Calm - N/A   Clear
1:15 AM 48.2 °F - 14.0 °F 25% 29.75 in 10.0 mi Calm Calm - N/A   Clear
1:34 AM 46.4 °F 42.4 °F 14.0 °F 27% 29.74 in 10.0 mi ESE 8.1 mph - N/A   Clear
1:55 AM 42.8 °F 39.3 °F 24.8 °F 49% 29.74 in 10.0 mi NNE 5.8 mph - N/A   Clear
2:15 AM 44.6 °F 43.1 °F 23.0 °F 43% 29.74 in 10.0 mi NNW 3.5 mph - N/A   Clear
2:35 AM 44.6 °F 40.2 °F 24.8 °F 46% 29.73 in 10.0 mi NNW 8.1 mph - N/A   Clear
2:55 AM 44.6 °F 40.2 °F 23.0 °F 43% 29.72 in 10.0 mi NNW 8.1 mph - N/A   Clear
3:15 AM 44.6 °F 39.7 °F 23.0 °F 43% 29.72 in 10.0 mi NNW 9.2 mph - N/A   Clear
3:35 AM 44.6 °F 40.2 °F 23.0 °F 43% 29.71 in 10.0 mi NNW 8.1 mph - N/A   Clear
3:55 AM 46.4 °F 41.5 °F 19.4 °F 34% 29.70 in 10.0 mi NNW 10.4 mph - N/A   Clear
4:14 AM 42.8 °F 39.3 °F 23.0 °F 46% 29.69 in 10.0 mi WNW 5.8 mph - N/A   Clear
4:35 AM 44.6 °F - 17.6 °F 34% 29.68 in 10.0 mi Calm Calm - N/A   Clear
4:54 AM 44.6 °F 40.2 °F 15.8 °F 31% 29.68 in 10.0 mi NNW 8.1 mph - N/A   Clear
5:47 AM 50.0 °F - 8.6 °F 19% 29.67 in 40.0 mi Calm Calm - N/A   Mostly Cloudy
6:59 AM 48.2 °F - 10.4 °F 22% 29.66 in 70.0 mi West 12.7 mph 17.3 mph N/A   Scattered Clouds
7:45 AM 60.8 °F - 6.8 °F 12% 29.67 in 70.0 mi West 12.7 mph 18.4 mph N/A   Scattered Clouds
8:47 AM 64.4 °F - 6.8 °F 10% 29.65 in 70.0 mi WNW 17.3 mph 24.2 mph N/A   Scattered Clouds
9:48 AM 64.4 °F - 5.0 °F 10% 29.64 in 70.0 mi NW 13.8 mph - N/A   Scattered Clouds
10:46 AM 66.2 °F - 3.2 °F 8% 29.63 in 70.0 mi West 8.1 mph 23.0 mph N/A   Scattered Clouds
11:55 AM 64.4 °F - 8.6 °F 11% 29.61 in - WNW 17.3 mph 25.3 mph N/A   Scattered Clouds
12:47 PM 64.4 °F - 10.4 °F 12% 29.58 in 70.0 mi NW 17.3 mph 23.0 mph N/A   Scattered Clouds
1:47 PM 66.2 °F - 8.6 °F 11% 29.58 in 70.0 mi North 5.8 mph - N/A   Scattered Clouds
2:45 PM 66.2 °F - 10.4 °F 11% 29.59 in 30.0 mi ENE 8.1 mph - N/A   Mostly Cloudy
3:45 PM 60.8 °F - 14.0 °F 16% 29.59 in 30.0 mi NE 10.4 mph - N/A   Mostly Cloudy
4:47 PM 59.0 °F - 12.2 °F 16% 29.61 in 50.0 mi ENE 8.1 mph - N/A   Mostly Cloudy
5:53 PM 59.0 °F - 12.2 °F 16% 29.65 in 20.0 mi NNE 9.2 mph - N/A   Overcast
6:48 PM 55.4 °F - 15.8 °F 21% 29.66 in 30.0 mi East 4.6 mph - N/A   Mostly Cloudy
7:07 PM 53.6 °F - 19.4 °F 26% 29.68 in 15.0 mi NE 11.5 mph - N/A   Mostly Cloudy
7:46 PM 48.2 °F - 24.8 °F 40% 29.73 in 10.0 mi NNE 17.3 mph 24.2 mph N/A   Mostly Cloudy
8:08 PM 46.4 °F 39.5 °F 24.8 °F 43% 29.76 in 15.0 mi North 17.3 mph 25.3 mph N/A   Overcast
8:47 PM 44.6 °F 37.4 °F 23.0 °F 43% 29.78 in 15.0 mi North 16.1 mph - N/A   Overcast
9:51 PM 39.2 °F 37.0 °F 26.6 °F 61% 29.81 in 10.0 mi Variable 3.5 mph - N/A Rain Light Rain
10:15 PM 39.2 °F - 26.6 °F 61% 29.83 in 10.0 mi Calm Calm - N/A   Overcast
10:34 PM 39.2 °F 35.0 °F 26.6 °F 61% 29.83 in 10.0 mi East 5.8 mph - N/A   Overcast
10:55 PM 37.4 °F 33.8 °F 28.4 °F 70% 29.85 in 10.0 mi East 4.6 mph - N/A   Overcast